Weather History for Tyler, TX

Change the Weather History Date:

Tuesday, January 8, 2013

  Actual Average Record
Temperature  
Mean Temperature 51 °F 46 °F  
Max Temperature 57 °F 56 °F 78 °F (1978)
Min Temperature 44 °F 37 °F 8 °F (1976)
Degree Days  
Heating Degree Days 14 19  
Month to date heating degree days 173 152  
Since 1 July heating degree days 909 1053  
Cooling Degree Days 0 0  
Month to date cooling degree days 0 0  
Year to date cooling degree days 0 0  
Growing Degree Days 1 (Base 50)    
Moisture  
Dew Point 46 °F    
Average Humidity 81    
Maximum Humidity 100    
Minimum Humidity 61    
Precipitation  
Precipitation 0.76 in 0.10 in 1.90 in (1920)
Month to date precipitation 0.83 0.87  
Year to date precipitation 0.83 0.87  
Snow  
Snow 0.00 in - - ()
Month to date snowfall 0.0  
Since 1 July snowfall 1.0  
Snow Depth 0.00 in    
Sea Level Pressure  
Sea Level Pressure 30.06 in    
Wind  
Wind Speed 6 mph (East)    
Max Wind Speed 18 mph    
Max Gust Speed 23 mph    
Visibility 6 miles    
Events Rain , Thunderstorm    
T = Trace of Precipitation, MM = Missing Value Source: NWS Daily Summary

Daily Weather History Graph

Daily Weather History Graph

Search for Another Location

Airport:

Trip Planner

Search our weather history database for the weather conditions in past years. The results will help you decide how hot, cold, wet, or windy it might be!

Date:

Astronomy

Jan. 08, 2013 Rise Set
Actual Time 7:23 AM CST 5:33 PM CST
Civil Twilight 6:57 AM CST 6:00 PM CST
Nautical Twilight 6:26 AM CST 6:30 PM CST
Astronomical Twilight 5:56 AM CST 7:00 PM CST
Moon 3:58 AM CST (1/8) 2:36 PM CST (1/8)
Length of Visible Light 11h 03m
Length of Day
10h 09m
Waning Crescent, 13% of the Moon is Illuminated
Jan 8
Waning Crescent
Jan 11
New
Jan 18
First Quarter
Jan 26
Full
Feb 3
Last Quarter

Hourly Weather History & Observations

Time (CST) Temp. Windchill Dew Point Humidity Pressure Visibility Wind Dir Wind Speed Gust Speed Precip Events Conditions
12:53 AM 46.9 °F - 36.0 °F 66% 30.13 in 10.0 mi SE 3.5 mph - N/A   Overcast
1:53 AM 46.0 °F 42.5 °F 35.1 °F 66% 30.12 in 10.0 mi ESE 6.9 mph - N/A   Mostly Cloudy
2:53 AM 45.0 °F 41.8 °F 35.1 °F 68% 30.12 in 10.0 mi SE 5.8 mph - N/A   Partly Cloudy
3:53 AM 45.0 °F 43.5 °F 35.1 °F 68% 30.10 in 10.0 mi East 3.5 mph - N/A   Mostly Cloudy
4:53 AM 45.0 °F 42.6 °F 37.9 °F 76% 30.09 in 10.0 mi East 4.6 mph - 0.00 in Rain Light Rain
5:53 AM 46.0 °F 43.9 °F 39.0 °F 76% 30.09 in 10.0 mi East 4.6 mph - 0.00 in   Overcast
6:09 AM 46.4 °F 44.3 °F 39.2 °F 76% 30.09 in 10.0 mi East 4.6 mph - N/A   Overcast
6:53 AM 46.0 °F 43.1 °F 39.9 °F 79% 30.10 in 10.0 mi East 5.8 mph - N/A   Overcast
7:53 AM 46.0 °F 43.1 °F 42.1 °F 86% 30.11 in 8.0 mi East 5.8 mph - 0.00 in Rain Light Rain
8:22 AM 46.4 °F 42.9 °F 42.8 °F 87% 30.11 in 3.0 mi East 6.9 mph - 0.01 in Rain Light Rain
8:53 AM 46.0 °F 42.5 °F 44.1 °F 93% 30.11 in 5.0 mi NE 6.9 mph - 0.02 in Rain Light Rain
9:35 AM 46.4 °F 42.9 °F 42.8 °F 87% 30.12 in 6.0 mi ENE 6.9 mph - 0.01 in Rain Light Rain
9:49 AM 46.4 °F 42.4 °F 42.8 °F 87% 30.12 in 7.0 mi East 8.1 mph - 0.01 in Rain Light Rain
9:53 AM 46.0 °F 42.5 °F 43.0 °F 89% 30.11 in 6.0 mi East 6.9 mph - 0.01 in Rain Light Rain
10:14 AM 46.4 °F 43.5 °F 42.8 °F 87% 30.12 in 7.0 mi Variable 5.8 mph - 0.01 in Rain Light Rain
10:53 AM 46.9 °F - 44.1 °F 90% 30.11 in 6.0 mi East 5.8 mph - 0.02 in Rain Light Rain
11:04 AM 46.4 °F 42.9 °F 44.6 °F 93% 30.12 in 2.5 mi ESE 6.9 mph - 0.07 in Rain , Thunderstorm Heavy Thunderstorms and Rain
11:13 AM 46.4 °F 41.1 °F 44.6 °F 93% 30.09 in 1.2 mi East 11.5 mph - 0.25 in Rain , Thunderstorm Heavy Thunderstorms and Rain
11:18 AM 46.4 °F 42.4 °F 44.6 °F 93% 30.09 in 2.0 mi East 8.1 mph - 0.25 in Rain Rain
11:26 AM 46.4 °F 44.3 °F 44.6 °F 93% 30.10 in 6.0 mi NNE 4.6 mph - 0.26 in Rain Light Rain
11:31 AM 46.4 °F 43.5 °F 44.6 °F 93% 30.09 in 5.0 mi North 5.8 mph - 0.27 in Rain Rain
11:53 AM 46.9 °F - 45.0 °F 93% 30.08 in 2.5 mi ENE 6.9 mph - 0.36 in Rain Heavy Rain
12:03 PM 46.4 °F 41.5 °F 44.6 °F 93% 30.06 in 1.8 mi ENE 10.4 mph - 0.08 in Rain Heavy Rain
12:11 PM 46.4 °F 41.9 °F 44.6 °F 93% 30.05 in 2.0 mi ENE 9.2 mph - 0.12 in Rain Heavy Rain
12:21 PM 46.4 °F 43.5 °F 44.6 °F 93% 30.04 in 3.0 mi ENE 5.8 mph - 0.14 in Rain Light Rain
12:53 PM 48.0 °F - 46.0 °F 93% 30.01 in 6.0 mi East 10.4 mph - 0.15 in Rain Light Rain
1:20 PM 50.0 °F - 48.2 °F 94% 29.99 in 2.5 mi East 8.1 mph - 0.09 in Rain Heavy Rain
1:29 PM 50.0 °F - 48.2 °F 94% 29.99 in 6.0 mi East 8.1 mph - 0.10 in Rain Light Rain
1:53 PM 50.0 °F - 48.0 °F 93% 29.99 in 5.0 mi ENE 6.9 mph - 0.11 in Rain Light Rain
2:53 PM 52.0 °F - 50.0 °F 93% 30.00 in 8.0 mi Calm Calm - 0.00 in Rain , Thunderstorm Light Rain
3:29 PM 51.8 °F - 48.2 °F 88% 29.99 in 4.0 mi East 12.7 mph - 0.08 in Rain , Thunderstorm Thunderstorms and Rain
3:50 PM 51.8 °F - 50.0 °F 94% 29.98 in 6.0 mi East 13.8 mph - 0.09 in Rain Light Rain
3:53 PM 52.0 °F - 50.0 °F 93% 29.99 in 7.0 mi East 11.5 mph - 0.09 in Rain Light Rain
4:11 PM 51.8 °F - 50.0 °F 94% 29.98 in 7.0 mi East 12.7 mph - 0.00 in   Overcast
4:24 PM 53.6 °F - 51.8 °F 94% 29.97 in 7.0 mi ESE 9.2 mph - 0.00 in   Overcast
4:53 PM 54.0 °F - 52.0 °F 93% 29.98 in 10.0 mi East 5.8 mph - 0.00 in   Overcast
6:53 PM 53.1 °F - 52.0 °F 96% 30.03 in 6.0 mi NW 6.9 mph - 0.00 in   Overcast
7:26 PM 53.6 °F - 51.8 °F 94% 30.02 in 6.0 mi Calm Calm - 0.00 in Rain Light Rain
7:40 PM 53.6 °F - 51.8 °F 94% 30.02 in 6.0 mi East 6.9 mph - 0.00 in   Overcast
7:53 PM 54.0 °F - 52.0 °F 93% 30.01 in 6.0 mi East 8.1 mph - 0.00 in   Overcast
8:05 PM 53.6 °F - 51.8 °F 94% 30.03 in 6.0 mi NNW 5.8 mph - 0.00 in Rain Light Rain
8:53 PM 54.0 °F - 52.0 °F 93% 30.02 in 5.0 mi ENE 6.9 mph - 0.00 in Rain Light Rain
9:44 PM 55.4 °F - 53.6 °F 94% 30.04 in 8.0 mi East 9.2 mph - 0.00 in   Overcast
9:53 PM 55.9 °F - 54.0 °F 93% 30.04 in 9.0 mi East 6.9 mph - 0.00 in   Overcast
9:59 PM 55.4 °F - 53.6 °F 94% 30.05 in 9.0 mi East 5.8 mph - 0.00 in Rain Light Rain
10:34 PM 57.2 °F - 55.4 °F 94% 30.05 in 6.0 mi ENE 6.9 mph - 0.00 in   Overcast
10:53 PM 55.9 °F - 55.0 °F 97% 30.04 in 6.0 mi NE 5.8 mph - 0.00 in   Overcast
11:53 PM 57.0 °F - 55.0 °F 93% 30.06 in 9.0 mi NE 5.8 mph - N/A   Overcast